Regional Weather Roundup
Issued by NWS

Home | Current Version | Previous Version | Text Only | Print | Product List | Glossary Off
Versions: 1 2 3 4 5 6 7 8 9 10 11 12 13 14 15 16 17 18 19 20 21 22 23 24 25 26 27 28 29 30 31 32 33 34 35 36 37 38 39 40 41 42 43 44 45 46 47 48 49 50

000
ASUS43 KLMK 270002
RWRKY
KENTUCKY REGIONAL WEATHER ROUNDUP
NATIONAL WEATHER SERVICE LOUISVILLE KY
800 PM EDT TUE AUG 26 2014

NOTE "FAIR" INDICATES FEW OR NO CLOUDS BELOW 12,000 FEET
WITH NO SIGNIFICANT WEATHER AND/OR OBSTRUCTIONS TO VISIBILITY.

KYZ001>023-026-027-061>063-070>075-270100-
WESTERN AND SOUTH CENTRAL KENTUCKY

CITY           SKY/WX    TMP DP  RH WIND       PRES   REMARKS
PADUCAH        PTCLDY    86  73  65 CALM      30.03S HX  93
HENDERSON      PTCLDY    84  73  70 CALM      30.04S HX  91
OWENSBORO      PTCLDY    87  73  62 E6        30.05S HX  94
HOPKINSVILLE   MOCLDY    79  73  82 S2        30.06R
BOWLING GREEN  PTCLDY    85  71  63 E5        30.06S HX  90
GLASGOW        PTCLDY    82  69  65 CALM      30.08R
$$

KYZ024-025-028>034-038-045-046-053-270100-
NORTH CENTRAL KENTUCKY

CITY           SKY/WX    TMP DP  RH WIND       PRES   REMARKS
LOUISVILLE/SDF MOCLDY    88  70  55 E8        30.07R HX  93
LOUISVILLE/LOU PTCLDY    88  71  57 E6        30.07R HX  94
FORT KNOX      CLEAR     85  73  67 E3        30.07R HX  92
$$

KYZ035>037-039>044-047>052-055>060-089>105-270100-
NORTHEAST KENTUCKY

CITY           SKY/WX    TMP DP  RH WIND       PRES   REMARKS
LEXINGTON      PTCLDY    82  68  62 NE6       30.10S
COVINGTON      MOCLDY    80  70  71 E8        30.10R
FRANKFORT      PTCLDY    83  69  62 E3        30.09R
$$

KYZ054-064>069-076>088-106>120-270100-
SOUTHEAST KENTUCKY

CITY           SKY/WX    TMP DP  RH WIND       PRES   REMARKS
JACKSON        CLEAR     74  64  71 CALM      30.13R
LONDON         CLEAR     79  62  56 NE5       30.12R
SOMERSET       PTCLDY    79  63  57 CALM      30.11R
MIDDLESBORO    CLEAR     76  66  71 CALM      30.10R
MONTICELLO     CLEAR     80  72  76 CALM      30.11R
$$




USA.gov is the U.S. government's official web portal to all federal, state and local government web resources and services.